Vorticity
6 5 4 3 3 3 2 2 2 2 2 2 1 1 1 1 1 1 1 2 2 2 2 2 2 2 2 2 2 2 2 2 2 2 2 2 2 2 2 2 2 2 2 2 2 2 3 3 3 3 4 4 4 4 5 5 6 6 7 7 8 8 8 9 9 9 9 10 10 10 10 10 10 10 11 11 12 13 13 13 14 14 15 15 16 16
4 3 3 2 2 2 2 2 2 2 2 2 2 2 2 2 2 2 2 2 2 2 2 2 2 2 2 2 2 2 2 2 2 2 2 2 2 2 2 2 2 2 2 3 3 3 4 4 5 5 5 6 6 7 7 8 9 9 10 11 11 12 12 13 13 14 14 14 14 14 14 14 15 15 15 16 16 16 16 17 17 18 18 18 19 19
3 3 2 2 2 2 2 2 2 2 2 3 3 3 3 3 3 2 2 2 2 2 2 2 2 2 2 2 2 2 2 2 2 2 2 2 2 3 3 3 3 3 4 4 4 5 6 6 7 8 8 9 10 10 11 12 13 14 15 16 16 17 17 18 18 19 19 19 19 19 20 20 20 20 20 21 21 21 21 21 21 22 22 22 23 23
2 2 2 2 2 2 2 2 3 3 3 3 3 3 3 3 3 3 2 2 2 2 2 2 2 2 2 2 2 2 2 2 3 3 3 3 4 4 4 5 5 6 6 7 7 8 9 10 11 12 13 13 14 15 16 18 19 20 21 21 22 22 22 23 24 24 24 24 24 24 25 25 25 25 26 26 26 25 25 25 25 26 27 27 28 28
2 2 2 2 2 2 2 2 3 3 3 3 3 3 3 3 3 3 2 2 2 2 2 2 1 2 2 2 2 3 3 4 4 4 5 5 6 6 7 8 9 10 11 12 14 15 16 17 18 18 19 20 21 22 23 25 25 26 26 25 25 25 26 27 28 28 28 28 29 29 29 29 30 30 30 30 30 30 30 29 29 29 30 31 31 32
2 2 2 2 3 3 3 3 3 3 3 3 3 3 3 2 2 2 2 2 2 1 1 1 2 2 2 3 4 4 5 6 6 7 8 9 10 11 13 14 16 18 20 22 23 24 25 26 27 27 27 28 29 29 30 31 31 30 29 28 28 29 30 31 31 31 31 32 32 32 33 33 33 33 33 33 33 33 33 32 32 32 32 32 33 33
2 2 2 3 3 3 3 3 3 3 3 3 3 3 2 2 2 2 2 2 1 2 2 2 3 4 4 5 6 7 8 9 10 12 13 15 17 19 21 23 26 28 30 31 32 33 33 34 34 34 34 34 35 35 35 35 33 32 32 32 32 33 35 34 34 34 33 34 34 34 34 34 34 34 33 33 33 33 33 33 33 34 34 34 34 35
3 3 3 3 4 4 4 3 3 3 3 3 3 3 2 2 2 2 1 2 2 3 4 5 6 7 8 9 10 12 13 14 16 19 21 23 25 27 30 32 33 34 35 36 36 37 37 37 37 37 37 37 37 37 37 35 34 34 33 34 35 36 36 35 35 34 33 33 33 33 32 32 32 32 32 32 32 33 33 34 35 35 36 37 37 38
3 4 4 4 4 4 4 3 3 2 2 2 2 2 2 2 2 2 2 3 4 6 7 8 10 11 13 15 16 18 20 22 24 26 28 30 32 33 35 36 37 37 37 36 36 36 36 35 35 35 34 35 35 34 34 33 33 32 32 33 34 35 34 33 33 32 32 31 31 31 31 31 31 31 32 32 33 34 35 36 37 38 39 39 39 38
4 4 4 4 4 3 3 3 3 2 2 2 2 2 2 3 3 4 6 7 9 10 11 12 14 16 18 22 24 26 28 30 31 33 34 35 36 37 37 37 36 36 35 33 32 32 31 31 30 30 30 30 31 31 31 31 31 31 32 32 33 33 32 31 31 30 30 30 30 30 30 31 31 32 33 34 35 37 38 39 39 40 39 39 37 35
4 4 4 4 3 3 2 2 2 2 1 2 2 3 4 5 6 8 10 12 13 15 17 19 21 22 24 28 30 32 33 34 36 37 37 37 37 36 35 34 32 31 29 28 28 27 27 26 26 26 27 27 28 28 29 29 29 30 31 32 32 32 31 31 31 31 30 30 30 30 31 31 32 33 34 35 36 36 36 36 36 35 34 32 31 29
4 4 3 3 3 2 2 2 2 2 2 3 4 7 9 11 12 13 14 16 18 20 22 24 28 30 32 33 34 35 36 35 35 35 34 33 32 31 29 28 26 25 25 24 24 24 24 24 24 25 25 26 27 28 29 29 29 29 30 31 31 32 32 32 32 31 31 31 31 30 30 31 32 33 33 33 32 31 30 29 27 25 24 22 21 19
3 3 3 2 2 2 2 2 2 3 4 6 9 11 13 14 16 18 21 22 24 25 26 27 31 35 38 37 36 35 34 32 31 29 28 26 25 24 23 23 23 23 22 22 23 23 23 23 24 25 26 27 28 29 29 29 30 30 30 31 31 32 32 32 31 31 30 29 28 28 27 28 28 29 28 27 25 23 21 20 18 17 15 14 13 13
2 2 2 2 2 2 2 3 4 6 9 12 14 16 16 16 19 23 26 29 30 31 30 32 34 35 37 36 34 31 28 26 24 23 22 21 21 21 22 22 22 22 22 23 23 24 23 24 24 25 26 27 28 29 30 30 30 30 31 31 32 33 33 32 30 29 28 26 25 23 22 22 22 22 22 20 18 16 14 13 12 11 11 10 10 11
2 1 1 2 2 3 4 6 8 11 15 17 19 20 21 24 27 29 31 32 32 32 33 34 35 34 33 29 26 23 21 20 19 19 19 20 22 23 23 23 24 24 24 25 25 25 24 25 25 26 27 28 29 29 30 30 30 30 31 31 32 32 32 30 29 28 26 23 20 18 17 16 16 16 15 14 13 11 10 10 10 10 10 11 11 12
1 1 2 3 4 6 8 10 14 17 21 22 23 24 26 29 31 33 33 33 32 31 32 31 30 28 26 22 19 17 16 17 17 19 20 23 25 26 26 25 26 26 26 26 26 26 25 26 26 27 27 28 29 29 30 29 30 30 30 30 30 29 28 27 26 25 23 20 17 14 13 12 12 11 11 10 10 9 9 10 10 11 12 13 15 16
2 3 4 5 8 11 13 17 21 24 25 26 28 30 32 32 32 32 33 31 30 28 27 25 23 21 18 17 16 16 17 18 20 22 24 26 28 29 29 28 27 27 27 27 28 27 27 27 27 27 28 28 29 29 29 29 29 28 28 26 25 24 24 23 23 21 19 17 15 12 11 10 10 9 9 9 9 10 11 12 13 14 15 17 18 19
4 6 7 10 14 17 19 24 28 30 30 31 32 33 35 34 33 31 30 27 25 22 20 19 18 17 15 16 17 18 20 22 24 25 28 30 31 31 30 29 28 28 27 29 29 28 28 27 27 27 27 28 28 28 28 27 26 25 23 22 21 21 21 21 20 19 17 15 14 12 11 10 9 9 9 9 10 11 13 14 16 17 18 18 19 19
8 11 14 17 20 23 26 31 33 34 33 33 32 31 32 32 30 27 23 21 19 17 15 15 15 15 15 17 20 22 24 26 27 28 30 31 31 31 30 29 28 28 29 29 29 28 27 26 26 26 26 26 26 26 25 24 23 21 19 19 19 19 20 19 19 18 17 15 14 12 11 10 10 10 10 11 12 14 15 16 17 18 18 18 17 16
14 17 22 24 25 27 32 35 36 35 34 31 30 29 28 25 22 20 17 16 15 14 14 14 15 16 18 21 24 27 29 29 30 30 30 30 31 31 31 29 28 28 29 28 27 25 24 24 23 23 22 22 22 22 22 21 19 18 17 17 18 18 18 17 17 17 17 15 14 12 11 11 11 11 12 13 14 15 16 17 17 16 16 15 14 13
19 24 28 29 30 32 34 35 35 33 31 28 26 24 22 18 16 15 14 13 13 14 14 15 17 18 20 24 27 29 29 29 29 29 28 29 31 32 32 30 28 27 27 25 23 22 21 20 19 18 18 17 18 18 19 18 17 17 17 17 17 16 15 14 15 17 17 16 14 13 12 12 12 12 13 14 15 15 16 15 15 14 13 12 10 9
24 27 29 32 34 34 33 33 32 30 26 23 20 18 16 15 14 14 13 13 14 15 16 17 18 19 22 26 28 29 28 28 27 26 26 29 32 33 32 29 27 26 24 22 20 19 18 17 16 15 15 15 16 17 18 17 17 16 16 16 15 14 13 14 16 18 18 17 15 14 13 13 13 13 14 14 14 14 14 13 12 11 10 8 7 6
28 28 29 32 34 34 32 30 27 24 19 17 15 15 14 14 14 13 13 14 15 16 17 17 19 21 25 27 27 26 26 26 26 26 27 30 32 33 30 26 24 22 20 18 17 16 15 14 14 13 14 14 16 17 17 17 16 16 15 15 14 13 13 16 18 20 20 17 15 14 13 13 13 13 13 13 13 12 11 10 10 8 7 6 5 4
30 30 30 31 31 30 28 25 21 17 14 13 13 13 14 14 14 14 14 15 16 17 17 18 21 24 26 26 25 25 26 27 27 27 29 31 32 30 25 22 20 18 17 15 15 14 14 13 13 13 14 15 16 17 17 16 16 15 15 14 14 15 16 19 21 22 20 18 15 14 13 13 13 13 12 12 11 10 9 9 8 7 6 5 4 4
29 29 29 29 27 25 21 18 15 13 12 12 13 14 15 15 15 15 16 17 18 18 18 20 22 24 24 23 24 26 28 28 28 27 28 29 28 24 19 17 16 16 15 15 15 14 14 14 14 14 14 15 16 16 16 15 15 15 15 15 16 17 20 22 23 22 19 17 15 13 13 12 12 12 11 10 10 9 8 8 7 6 6 5 5 5
29 28 26 24 22 19 15 13 12 11 12 13 14 15 16 15 16 16 17 18 18 18 19 21 22 22 22 23 25 28 29 28 27 25 23 24 21 17 12 13 14 15 15 16 16 16 16 16 16 16 15 15 15 15 15 15 15 15 16 17 18 20 22 23 22 20 17 15 14 13 12 12 11 10 10 9 9 8 8 7 7 6 6 6 6 6
27 25 23 20 17 14 12 11 11 12 13 15 16 17 17 17 17 17 18 18 17 17 19 20 21 21 22 25 28 30 29 26 23 20 18 17 14 11 8 12 14 15 16 16 17 17 17 18 18 17 16 16 15 15 15 15 15 15 16 17 19 20 21 21 20 18 16 14 13 12 12 11 10 10 9 9 8 8 8 8 7 7 7 7 7 8
23 21 18 16 14 13 12 12 13 14 15 16 17 18 18 17 17 17 17 16 16 17 19 19 20 22 24 28 30 30 27 22 17 14 13 12 10 8 9 13 14 15 15 15 16 17 17 17 17 17 16 15 14 14 14 14 14 15 16 17 18 19 20 19 18 16 15 14 13 12 11 10 10 10 9 9 9 8 8 8 8 7 8 8 9 10
18 16 15 14 13 13 13 14 15 16 16 17 18 18 18 17 17 17 16 16 16 18 19 19 21 23 27 29 30 28 24 17 12 10 10 9 9 9 12 14 14 14 15 14 14 15 15 15 14 14 14 13 13 13 13 13 14 14 15 17 18 19 19 18 17 15 14 13 12 12 11 11 10 10 10 9 9 9 9 8 8 8 9 10 11 12
15 14 14 14 14 15 15 16 16 17 17 18 19 19 19 18 17 17 16 16 17 18 18 20 23 25 27 28 27 24 18 12 9 8 9 10 10 11 14 14 14 14 14 13 12 12 13 12 12 11 11 12 12 12 12 13 14 15 15 16 17 18 18 17 16 15 14 13 12 12 11 11 11 10 10 10 10 9 9 9 9 10 10 11 13 14
14 14 14 15 15 16 16 17 17 17 18 19 20 20 19 18 17 17 16 17 17 18 19 22 25 27 27 25 22 18 11 7 7 9 10 11 12 13 15 14 14 13 12 11 10 10 11 11 11 11 11 12 12 12 12 13 14 14 15 16 17 17 17 17 16 15 14 13 12 12 11 11 11 11 10 10 10 10 10 10 10 11 12 13 14 15
14 15 15 15 16 16 17 17 17 18 18 20 20 20 19 18 17 16 16 16 17 18 20 23 25 26 25 21 18 14 9 7 8 11 12 12 13 14 15 14 12 11 10 9 9 9 10 10 11 12 13 13 13 13 13 13 13 13 14 15 15 16 16 16 16 15 14 13 13 12 12 11 11 11 11 11 11 11 11 11 12 12 13 14 14 14
16 16 16 16 16 17 17 17 17 18 19 20 21 20 19 18 17 16 15 16 17 19 21 24 25 24 21 18 14 11 9 8 10 12 12 12 13 14 14 12 11 10 9 8 9 10 11 11 12 13 14 15 15 15 15 14 14 14 14 14 14 15 15 15 15 14 14 13 13 12 12 12 12 12 12 12 12 12 12 12 12 13 13 14 14 13
17 17 17 17 17 17 17 17 17 18 20 21 21 20 19 17 16 15 15 16 17 20 23 23 23 20 17 14 12 10 9 9 11 12 12 12 13 14 13 11 9 8 8 9 10 11 12 13 13 14 15 15 16 16 16 16 16 15 15 15 15 14 14 14 13 13 12 12 12 12 12 12 12 12 12 12 12 12 12 12 12 12 13 13 13 12
17 17 17 17 17 17 17 17 17 18 20 21 21 20 18 16 15 14 14 16 19 21 23 22 20 17 13 11 10 9 8 10 11 13 13 13 13 13 11 9 8 8 9 10 11 12 12 13 14 14 14 14 15 16 17 17 17 17 17 17 17 16 14 13 12 12 11 11 10 11 11 11 11 12 12 12 11 11 11 11 11 11 12 12 12 12
17 16 16 16 16 16 16 16 17 19 21 22 21 19 17 15 14 14 15 17 20 22 22 20 17 14 11 10 10 9 9 11 12 13 13 13 13 12 10 8 8 8 10 11 12 13 13 13 13 13 13 14 15 16 16 16 17 17 18 19 18 17 16 14 12 11 10 10 10 10 10 10 11 11 11 11 10 10 10 10 10 10 10 10 11 11
16 16 16 16 16 16 16 16 17 19 21 22 21 19 17 15 14 14 16 19 21 21 20 17 14 12 10 9 9 10 10 12 13 13 14 14 12 10 9 8 8 8 10 11 12 12 12 12 12 11 11 12 12 13 14 14 16 17 18 19 19 18 17 15 13 12 10 10 10 10 10 10 10 10 10 10 10 10 10 10 10 9 9 9 10 10
15 15 16 16 16 15 15 15 17 19 22 23 21 19 17 15 14 15 17 19 20 20 17 14 12 10 9 9 9 10 10 11 12 14 15 14 12 10 8 7 8 9 10 11 11 10 10 10 9 9 9 9 9 10 10 12 13 15 17 18 19 18 17 16 15 13 12 11 11 11 10 10 10 10 10 9 9 9 10 10 10 9 9 9 9 9
15 15 16 16 16 15 14 15 17 20 23 23 22 19 17 15 14 15 17 19 19 18 15 13 11 9 9 9 9 10 11 12 13 14 16 15 12 9 7 7 8 9 10 10 10 9 9 8 8 8 8 7 7 7 8 8 9 11 13 15 15 15 15 16 16 15 14 14 13 13 12 12 11 10 10 10 9 9 10 10 9 9 9 9 10 10
15 16 16 16 15 15 14 14 17 20 23 23 22 19 16 14 13 14 16 17 17 16 14 11 10 9 9 9 10 10 11 12 13 15 16 15 12 9 7 7 8 8 9 9 8 8 8 7 7 7 7 7 7 7 6 6 6 7 9 9 9 9 12 14 15 15 16 16 15 15 14 14 13 12 12 11 11 10 10 10 10 10 10 10 10 10
16 16 17 16 15 14 13 14 16 20 24 23 21 18 15 13 13 13 15 17 16 15 13 11 10 9 10 10 10 11 11 12 13 15 15 14 12 10 8 8 8 8 8 8 7 7 7 6 6 6 6 6 6 6 6 6 6 5 5 4 4 5 7 9 10 12 13 14 15 15 15 15 15 14 14 13 12 12 11 11 11 11 11 11 11 11
16 17 17 16 15 14 13 13 17 20 24 23 21 17 14 12 12 13 15 16 16 14 12 10 9 9 9 10 10 11 12 12 13 14 15 14 12 10 8 8 8 7 7 7 6 6 6 6 5 5 5 6 6 6 6 6 6 5 5 4 4 4 4 4 5 7 9 10 12 13 14 15 15 15 15 14 14 13 12 12 12 12 12 12 12 12
16 17 16 15 14 13 12 13 17 21 24 23 20 16 13 11 12 13 14 15 15 14 12 10 10 9 9 9 10 11 12 12 13 14 15 15 13 11 9 8 7 7 6 6 6 6 5 5 5 5 5 5 5 5 6 6 5 5 5 5 4 4 4 5 5 6 7 7 8 10 11 12 13 13 14 14 13 13 12 12 12 11 11 11 11 11
16 16 15 14 13 12 12 14 17 20 23 22 19 15 12 11 11 12 14 15 15 14 12 10 10 10 10 10 10 11 12 13 14 15 15 15 14 12 10 8 7 6 6 6 6 5 5 5 5 5 4 4 4 4 4 4 5 5 5 4 5 5 5 4 4 5 6 6 7 8 9 10 11 11 12 12 12 12 11 11 11 11 10 10 10 10
15 15 15 14 13 12 12 14 17 20 22 21 18 15 12 11 11 12 14 15 15 13 12 10 10 10 10 11 11 12 12 13 14 14 15 15 14 13 11 9 7 6 6 6 6 6 5 5 5 4 4 4 4 4 4 4 4 5 5 4 5 5 5 4 4 5 6 6 7 8 9 10 11 11 11 11 10 10 10 10 10 10 10 10 9 9
15 15 14 13 12 12 12 14 17 20 22 20 17 14 12 11 11 12 13 14 14 13 12 11 10 10 11 11 12 12 13 13 14 14 15 15 15 13 12 10 8 7 6 6 6 6 6 5 4 4 4 3 3 3 4 4 4 5 5 5 5 5 5 5 5 6 6 7 8 9 10 11 12 13 12 12 11 11 10 10 10 10 10 10 10 10
15 14 13 12 12 12 13 15 18 21 22 19 16 14 12 11 12 12 13 13 13 13 12 11 10 11 11 12 12 13 13 13 14 14 15 15 15 14 12 11 9 7 6 6 5 5 5 5 4 3 3 3 3 4 5 5 5 5 5 5 5 5 5 5 6 6 6 7 8 9 10 12 14 15 15 14 13 12 12 11 11 11 11 11 12 12
14 13 13 12 12 12 13 16 19 21 22 19 16 14 12 12 12 12 13 13 13 12 12 11 10 11 11 12 13 14 14 14 14 14 15 15 14 14 12 11 9 8 7 6 6 5 5 4 4 3 3 3 4 5 6 6 7 7 7 6 6 7 7 7 7 8 8 9 9 10 11 12 14 15 15 15 15 14 13 13 13 13 13 13 14 14
13 13 12 12 12 13 15 17 20 22 22 19 16 14 12 12 12 12 13 13 13 12 11 11 11 11 11 12 13 14 14 14 14 14 14 14 14 13 12 10 9 8 7 7 7 6 6 6 6 6 5 5 6 7 8 9 9 9 8 8 8 8 9 9 10 10 11 11 12 12 13 13 14 14 14 15 15 14 13 13 13 14 14 14 15 15
13 13 13 13 14 14 16 18 21 22 22 18 15 13 12 12 12 12 12 13 13 12 12 11 11 11 12 13 13 14 14 14 14 14 14 14 13 12 11 10 9 8 7 7 7 7 7 7 8 9 10 10 10 11 11 11 10 10 10 10 11 11 12 13 14 14 15 15 15 15 15 15 15 15 15 15 14 13 13 13 13 13 13 14 15 15
14 14 14 14 15 16 17 19 22 23 21 17 15 13 12 12 12 12 12 12 12 12 12 11 11 11 12 13 13 14 14 14 14 15 14 14 13 12 11 10 9 8 8 7 7 7 6 7 9 11 12 13 13 13 12 11 11 11 12 13 14 15 16 17 18 18 18 18 18 18 17 17 16 16 15 14 13 13 12 13 13 13 13 14 14 15
Height
5599 5598 5597 5595 5593 5592 5590 5589 5587 5585 5583 5582 5581 5578 5576 5575 5573 5571 5569 5567 5565 5563 5561 5559 5557 5555 5553 5551 5549 5547 5544 5542 5540 5538 5536 5534 5532 5531 5529 5527 5526 5524 5522 5521 5519 5517 5515 5514 5512 5511 5509 5508 5506 5505 5503 5502 5500 5498 5497 5495 5494 5493 5492 5492 5491 5491 5490 5490 5489 5489 5489 5489 5489 5489 5489 5489 5489 5489 5488 5488 5488 5488 5488 5488 5489 5489
5595 5593 5592 5590 5588 5587 5585 5584 5582 5580 5578 5576 5574 5572 5571 5568 5567 5565 5563 5561 5559 5556 5554 5552 5550 5548 5546 5543 5541 5538 5536 5534 5532 5529 5527 5525 5523 5522 5520 5518 5516 5514 5513 5511 5509 5507 5505 5504 5502 5500 5499 5497 5496 5494 5493 5491 5490 5488 5486 5485 5483 5482 5482 5481 5481 5480 5480 5479 5478 5478 5479 5479 5478 5479 5479 5480 5480 5479 5479 5479 5478 5478 5478 5479 5480 5480
5590 5588 5587 5585 5583 5582 5580 5578 5576 5574 5572 5570 5567 5566 5564 5562 5560 5558 5557 5554 5552 5550 5547 5545 5542 5540 5537 5535 5533 5530 5527 5525 5522 5520 5518 5516 5514 5512 5510 5508 5506 5504 5502 5501 5499 5497 5495 5493 5491 5489 5487 5486 5485 5483 5482 5480 5479 5477 5476 5474 5473 5472 5471 5470 5470 5469 5469 5468 5468 5468 5468 5468 5469 5469 5469 5470 5470 5470 5470 5469 5469 5469 5469 5469 5470 5470
5585 5582 5581 5579 5578 5576 5574 5572 5570 5567 5566 5563 5561 5559 5557 5555 5553 5552 5550 5547 5545 5543 5540 5538 5535 5532 5530 5527 5524 5522 5519 5516 5513 5511 5509 5506 5504 5502 5500 5497 5496 5493 5492 5490 5487 5486 5483 5482 5480 5478 5476 5475 5473 5472 5471 5469 5468 5466 5465 5463 5462 5461 5460 5459 5459 5458 5458 5457 5457 5457 5457 5458 5459 5459 5459 5459 5460 5460 5460 5461 5461 5461 5460 5461 5461 5461
5580 5577 5575 5573 5572 5570 5568 5566 5564 5561 5558 5556 5554 5552 5550 5548 5546 5544 5542 5540 5538 5536 5533 5531 5528 5525 5522 5518 5516 5513 5510 5507 5504 5501 5499 5496 5494 5492 5489 5487 5485 5482 5480 5478 5476 5474 5472 5470 5468 5466 5465 5463 5462 5461 5460 5458 5457 5455 5454 5452 5451 5451 5450 5449 5448 5448 5447 5447 5447 5447 5448 5448 5449 5450 5450 5450 5451 5451 5451 5451 5452 5452 5452 5452 5452 5451
5574 5572 5569 5567 5566 5564 5562 5560 5557 5555 5552 5549 5547 5546 5543 5541 5539 5537 5534 5532 5530 5528 5526 5523 5520 5517 5513 5510 5507 5503 5501 5497 5494 5492 5489 5486 5484 5481 5478 5476 5474 5471 5469 5466 5464 5462 5460 5458 5457 5455 5453 5452 5451 5450 5449 5448 5446 5444 5443 5442 5442 5441 5440 5440 5439 5438 5437 5437 5437 5438 5438 5439 5440 5441 5441 5441 5442 5442 5442 5442 5443 5444 5444 5445 5444 5443
5568 5566 5564 5561 5559 5557 5556 5554 5551 5547 5544 5542 5540 5538 5536 5534 5532 5529 5527 5524 5522 5519 5517 5514 5511 5508 5505 5501 5497 5494 5491 5488 5485 5482 5479 5476 5473 5471 5468 5465 5463 5460 5457 5455 5453 5451 5449 5447 5445 5444 5442 5442 5441 5440 5439 5437 5436 5434 5433 5433 5432 5432 5432 5431 5430 5429 5428 5428 5429 5429 5430 5431 5431 5432 5433 5433 5433 5433 5434 5434 5435 5436 5437 5437 5437 5437
5562 5560 5558 5556 5553 5551 5549 5547 5544 5541 5537 5534 5532 5530 5528 5526 5524 5522 5519 5517 5514 5511 5508 5505 5502 5498 5495 5492 5489 5485 5481 5477 5475 5472 5469 5466 5463 5461 5458 5455 5453 5450 5447 5445 5442 5440 5438 5437 5435 5434 5433 5432 5432 5431 5430 5428 5426 5425 5425 5425 5425 5424 5423 5422 5422 5421 5421 5421 5421 5422 5422 5423 5424 5425 5426 5426 5426 5426 5427 5427 5428 5429 5430 5430 5431 5432
5555 5553 5551 5549 5547 5545 5542 5539 5537 5534 5531 5527 5524 5521 5519 5517 5515 5513 5511 5509 5506 5502 5499 5496 5492 5489 5485 5482 5479 5475 5472 5467 5464 5462 5459 5457 5454 5451 5448 5446 5443 5441 5438 5436 5433 5431 5429 5427 5426 5425 5424 5423 5423 5422 5421 5419 5418 5417 5417 5417 5417 5417 5416 5415 5415 5414 5414 5414 5414 5415 5415 5416 5417 5418 5419 5419 5419 5420 5420 5421 5422 5423 5423 5424 5425 5426
5548 5546 5544 5542 5540 5538 5536 5533 5529 5526 5523 5520 5516 5513 5511 5508 5506 5503 5501 5499 5497 5494 5491 5487 5483 5480 5476 5472 5468 5464 5462 5459 5455 5452 5449 5447 5445 5442 5439 5437 5435 5432 5430 5427 5425 5423 5421 5419 5418 5417 5416 5416 5415 5415 5413 5412 5411 5410 5410 5410 5410 5410 5410 5409 5409 5408 5408 5408 5408 5409 5409 5410 5412 5412 5413 5414 5414 5414 5415 5416 5417 5417 5418 5419 5420 5421
5541 5539 5537 5535 5533 5531 5528 5526 5522 5519 5515 5512 5509 5505 5502 5499 5497 5495 5492 5489 5486 5484 5482 5478 5474 5471 5468 5464 5459 5454 5451 5449 5447 5444 5441 5439 5437 5434 5432 5429 5427 5424 5422 5420 5417 5415 5413 5412 5410 5409 5409 5408 5408 5407 5406 5405 5404 5404 5403 5403 5404 5404 5404 5404 5403 5403 5402 5403 5403 5404 5404 5405 5406 5407 5408 5409 5409 5410 5410 5411 5412 5413 5414 5415 5416 5416
5534 5532 5530 5528 5526 5523 5521 5518 5514 5511 5508 5505 5501 5497 5493 5490 5487 5485 5483 5480 5477 5474 5472 5469 5465 5462 5458 5455 5451 5446 5442 5439 5438 5437 5435 5432 5430 5427 5424 5422 5419 5417 5415 5413 5411 5408 5406 5405 5403 5402 5402 5401 5401 5400 5400 5399 5399 5398 5398 5398 5398 5398 5399 5399 5398 5398 5398 5398 5399 5399 5400 5401 5402 5403 5404 5404 5405 5406 5407 5407 5408 5409 5410 5411 5412 5413
5528 5525 5523 5521 5518 5516 5513 5510 5506 5503 5500 5496 5493 5489 5486 5482 5478 5476 5473 5471 5467 5464 5462 5460 5457 5453 5449 5446 5442 5438 5434 5432 5431 5430 5429 5427 5424 5420 5417 5415 5412 5411 5409 5407 5405 5402 5400 5398 5397 5397 5396 5395 5395 5394 5394 5393 5393 5393 5393 5393 5393 5393 5394 5395 5394 5394 5394 5395 5395 5396 5396 5397 5398 5399 5400 5401 5402 5402 5403 5404 5405 5406 5407 5408 5409 5410
5521 5518 5516 5513 5511 5508 5505 5502 5498 5495 5491 5488 5484 5481 5477 5473 5470 5467 5464 5462 5458 5455 5452 5452 5450 5446 5442 5438 5434 5430 5427 5425 5424 5423 5423 5421 5418 5414 5411 5408 5406 5404 5403 5401 5399 5397 5395 5393 5392 5391 5391 5390 5390 5389 5389 5388 5388 5388 5388 5388 5389 5389 5390 5391 5391 5391 5391 5392 5392 5392 5393 5394 5395 5396 5397 5397 5398 5399 5400 5401 5402 5403 5404 5405 5406 5407
5514 5512 5508 5505 5502 5500 5497 5493 5490 5487 5483 5479 5475 5472 5469 5465 5462 5458 5456 5453 5450 5447 5444 5443 5442 5439 5436 5432 5428 5424 5421 5418 5417 5417 5417 5415 5412 5408 5405 5402 5400 5398 5397 5396 5394 5392 5390 5389 5387 5386 5386 5385 5385 5385 5384 5384 5384 5384 5384 5385 5385 5386 5386 5387 5387 5388 5388 5389 5389 5390 5390 5391 5392 5392 5394 5395 5396 5397 5397 5398 5399 5401 5401 5402 5403 5404
5507 5505 5501 5498 5495 5492 5489 5485 5482 5478 5475 5471 5467 5463 5461 5458 5454 5450 5447 5445 5442 5439 5437 5436 5434 5433 5430 5427 5422 5419 5416 5413 5411 5411 5411 5409 5406 5402 5399 5397 5394 5392 5392 5391 5389 5387 5386 5384 5383 5382 5382 5381 5381 5381 5381 5381 5381 5381 5382 5382 5382 5383 5383 5384 5385 5385 5386 5387 5387 5387 5388 5388 5389 5390 5391 5392 5393 5394 5395 5396 5397 5398 5399 5400 5400 5401
5500 5497 5494 5490 5487 5483 5481 5477 5474 5470 5466 5462 5459 5456 5453 5450 5447 5443 5440 5437 5435 5432 5430 5428 5427 5427 5425 5422 5417 5413 5410 5407 5405 5404 5404 5402 5400 5397 5394 5391 5389 5387 5387 5386 5385 5383 5382 5381 5379 5378 5378 5378 5377 5377 5377 5377 5378 5378 5379 5379 5380 5381 5381 5382 5382 5383 5384 5385 5385 5385 5386 5386 5387 5387 5388 5390 5391 5392 5392 5393 5394 5395 5396 5397 5397 5398
5491 5489 5486 5482 5478 5475 5472 5470 5466 5462 5457 5454 5451 5449 5446 5443 5440 5437 5434 5431 5428 5426 5424 5422 5421 5420 5419 5416 5412 5408 5405 5402 5400 5398 5397 5396 5394 5392 5389 5386 5384 5383 5382 5382 5381 5379 5378 5377 5376 5376 5375 5375 5375 5375 5375 5375 5375 5376 5377 5377 5378 5378 5379 5380 5381 5381 5382 5382 5383 5383 5383 5384 5385 5385 5386 5387 5388 5389 5390 5391 5392 5392 5393 5394 5395 5396
5482 5480 5477 5474 5470 5467 5464 5461 5458 5455 5451 5447 5444 5442 5440 5437 5434 5431 5428 5426 5423 5421 5419 5417 5415 5413 5412 5410 5407 5404 5400 5397 5394 5392 5391 5390 5389 5387 5385 5382 5380 5379 5379 5378 5377 5376 5375 5374 5373 5373 5373 5372 5372 5372 5372 5373 5373 5374 5375 5376 5376 5377 5377 5378 5379 5379 5380 5381 5381 5382 5382 5382 5383 5383 5384 5385 5386 5386 5387 5388 5389 5390 5391 5392 5393 5394
5472 5471 5468 5466 5463 5460 5457 5453 5451 5447 5444 5440 5437 5435 5433 5431 5429 5426 5423 5420 5418 5416 5414 5412 5410 5408 5407 5405 5402 5399 5396 5392 5389 5387 5386 5385 5384 5382 5381 5379 5377 5376 5376 5375 5374 5373 5372 5372 5372 5371 5371 5371 5371 5370 5371 5371 5372 5373 5373 5374 5374 5375 5376 5376 5377 5378 5378 5379 5379 5380 5380 5381 5381 5381 5382 5382 5383 5384 5385 5387 5387 5388 5389 5390 5391 5392
5463 5462 5459 5457 5454 5452 5450 5447 5443 5440 5437 5434 5432 5430 5428 5426 5424 5421 5418 5416 5413 5411 5409 5407 5406 5403 5402 5400 5397 5394 5391 5388 5385 5383 5381 5381 5380 5379 5377 5376 5374 5373 5373 5373 5372 5371 5370 5370 5370 5370 5369 5369 5369 5369 5369 5369 5371 5372 5372 5372 5372 5373 5374 5374 5375 5376 5377 5377 5377 5378 5378 5379 5379 5380 5380 5381 5382 5382 5383 5384 5385 5387 5387 5389 5390 5391
5456 5454 5452 5449 5446 5444 5443 5440 5437 5434 5431 5428 5427 5424 5422 5420 5418 5416 5414 5412 5409 5407 5405 5403 5402 5400 5398 5396 5393 5390 5387 5384 5382 5380 5378 5377 5376 5376 5375 5373 5372 5371 5371 5371 5370 5369 5369 5368 5368 5368 5368 5367 5367 5367 5367 5368 5369 5369 5370 5370 5371 5371 5372 5373 5374 5374 5375 5375 5376 5376 5376 5377 5377 5378 5378 5379 5380 5381 5382 5382 5384 5385 5386 5387 5388 5389
5448 5447 5445 5442 5440 5437 5436 5434 5431 5428 5425 5423 5421 5419 5417 5415 5413 5411 5409 5407 5405 5403 5401 5399 5397 5396 5394 5392 5389 5386 5383 5381 5378 5377 5375 5374 5373 5373 5373 5371 5370 5370 5370 5369 5369 5368 5368 5367 5367 5367 5366 5366 5366 5366 5366 5367 5367 5367 5368 5368 5369 5370 5371 5371 5372 5372 5373 5373 5374 5374 5375 5375 5376 5376 5377 5377 5378 5379 5380 5381 5382 5383 5384 5385 5387 5387
5442 5441 5439 5437 5434 5432 5430 5428 5426 5423 5421 5418 5416 5414 5412 5410 5408 5406 5404 5403 5401 5399 5397 5395 5393 5391 5389 5387 5385 5382 5380 5378 5376 5374 5373 5372 5372 5372 5371 5370 5369 5368 5368 5368 5367 5367 5366 5366 5366 5365 5365 5364 5364 5364 5365 5365 5366 5366 5367 5367 5368 5368 5369 5370 5370 5371 5371 5371 5372 5372 5373 5373 5374 5375 5375 5376 5376 5377 5378 5379 5381 5382 5383 5383 5384 5385
5438 5436 5434 5432 5430 5427 5425 5423 5421 5418 5416 5414 5412 5409 5407 5405 5403 5401 5400 5399 5397 5395 5393 5391 5389 5387 5385 5383 5381 5379 5377 5375 5373 5372 5371 5370 5370 5370 5370 5369 5368 5367 5367 5367 5366 5365 5365 5364 5364 5364 5363 5363 5363 5363 5364 5364 5365 5365 5366 5366 5367 5367 5367 5368 5368 5369 5369 5369 5370 5370 5371 5372 5372 5373 5373 5374 5375 5376 5377 5377 5379 5380 5381 5382 5382 5383
5434 5432 5430 5428 5426 5424 5422 5419 5417 5414 5412 5410 5407 5405 5403 5401 5400 5398 5397 5396 5393 5391 5388 5386 5385 5383 5382 5380 5378 5377 5375 5373 5371 5370 5369 5369 5369 5369 5369 5367 5367 5366 5366 5366 5365 5364 5363 5363 5363 5362 5362 5362 5362 5362 5363 5363 5364 5364 5364 5365 5365 5366 5366 5367 5367 5367 5368 5368 5368 5369 5369 5370 5371 5372 5372 5373 5374 5375 5375 5376 5377 5378 5379 5380 5381 5381
5428 5427 5426 5424 5422 5420 5418 5416 5413 5412 5409 5407 5405 5403 5401 5399 5397 5395 5392 5391 5388 5386 5384 5383 5382 5380 5379 5377 5376 5375 5373 5371 5370 5368 5368 5367 5367 5367 5367 5366 5365 5365 5365 5364 5364 5363 5362 5362 5362 5362 5361 5361 5361 5362 5362 5362 5362 5363 5363 5364 5364 5365 5365 5365 5366 5366 5366 5367 5367 5368 5368 5369 5370 5370 5371 5372 5372 5373 5374 5375 5376 5377 5377 5378 5379 5380
5423 5422 5420 5419 5418 5416 5414 5412 5410 5408 5406 5403 5401 5398 5396 5395 5393 5390 5388 5387 5385 5383 5382 5380 5379 5377 5376 5375 5374 5373 5372 5370 5368 5367 5367 5367 5366 5366 5366 5365 5364 5364 5364 5363 5363 5362 5361 5361 5361 5361 5361 5361 5361 5361 5361 5361 5362 5362 5362 5363 5363 5363 5364 5364 5364 5365 5365 5366 5366 5367 5367 5368 5369 5369 5370 5371 5371 5372 5372 5373 5374 5375 5376 5376 5377 5378
5419 5417 5416 5414 5413 5411 5409 5407 5405 5403 5401 5399 5397 5395 5392 5391 5389 5387 5386 5385 5383 5381 5379 5377 5376 5375 5374 5373 5372 5371 5370 5368 5367 5366 5366 5366 5365 5365 5365 5364 5363 5363 5362 5362 5362 5361 5361 5360 5360 5360 5360 5360 5360 5360 5360 5361 5361 5361 5362 5362 5362 5362 5363 5363 5363 5364 5364 5365 5365 5366 5367 5367 5368 5368 5369 5369 5370 5371 5371 5372 5373 5373 5374 5375 5376 5376
5415 5413 5411 5409 5408 5406 5404 5402 5401 5399 5397 5395 5393 5391 5389 5387 5386 5384 5383 5381 5380 5378 5376 5375 5374 5373 5372 5371 5370 5369 5368 5367 5366 5365 5365 5365 5364 5364 5364 5363 5362 5362 5362 5361 5361 5360 5360 5359 5359 5359 5359 5359 5359 5359 5359 5360 5360 5360 5360 5361 5361 5361 5362 5362 5362 5363 5363 5364 5364 5365 5365 5366 5367 5367 5368 5368 5369 5369 5370 5371 5372 5372 5373 5373 5374 5375
5411 5409 5407 5405 5403 5402 5400 5398 5397 5395 5393 5392 5390 5387 5386 5384 5382 5381 5379 5378 5377 5376 5374 5372 5372 5371 5370 5369 5368 5368 5367 5366 5365 5364 5364 5364 5363 5363 5362 5362 5362 5361 5361 5361 5361 5360 5359 5358 5358 5359 5358 5358 5358 5358 5358 5359 5359 5359 5359 5360 5360 5360 5361 5361 5362 5362 5362 5363 5363 5364 5364 5365 5366 5366 5367 5367 5368 5368 5369 5369 5370 5371 5372 5372 5373 5374
5407 5405 5403 5402 5399 5397 5396 5394 5393 5391 5390 5388 5386 5384 5382 5380 5379 5377 5376 5375 5374 5373 5372 5370 5369 5369 5368 5367 5367 5366 5366 5365 5364 5363 5363 5363 5362 5362 5362 5361 5361 5360 5360 5360 5360 5360 5359 5358 5358 5358 5358 5357 5357 5357 5358 5358 5358 5358 5358 5359 5359 5360 5360 5360 5361 5361 5362 5362 5363 5363 5364 5364 5365 5365 5365 5366 5367 5367 5368 5368 5369 5370 5371 5371 5372 5372
5403 5401 5399 5397 5395 5394 5392 5391 5389 5387 5386 5384 5382 5380 5378 5377 5376 5374 5373 5372 5371 5370 5369 5368 5367 5367 5366 5366 5365 5364 5364 5363 5362 5362 5362 5362 5362 5361 5361 5360 5360 5360 5359 5359 5359 5359 5358 5357 5357 5357 5357 5357 5357 5357 5357 5357 5357 5357 5358 5358 5358 5359 5359 5360 5360 5361 5361 5362 5362 5362 5363 5363 5364 5364 5364 5365 5366 5366 5367 5367 5368 5369 5369 5370 5371 5371
5398 5397 5395 5393 5391 5390 5388 5387 5385 5384 5382 5380 5378 5377 5375 5374 5373 5372 5370 5369 5368 5367 5367 5366 5366 5365 5365 5364 5363 5363 5362 5362 5361 5361 5361 5361 5361 5360 5360 5360 5359 5359 5359 5358 5358 5357 5357 5357 5356 5356 5356 5356 5356 5356 5356 5357 5357 5357 5357 5357 5358 5358 5359 5359 5359 5360 5360 5361 5361 5362 5362 5362 5363 5363 5364 5364 5364 5365 5366 5366 5367 5368 5368 5369 5369 5370
5394 5392 5391 5389 5387 5386 5384 5383 5382 5380 5379 5377 5375 5374 5372 5371 5370 5369 5368 5367 5366 5365 5365 5364 5364 5363 5363 5362 5362 5361 5361 5360 5360 5360 5360 5360 5360 5360 5359 5358 5358 5358 5358 5357 5357 5357 5356 5356 5356 5355 5355 5355 5355 5356 5356 5356 5356 5357 5357 5357 5357 5358 5358 5358 5359 5359 5360 5360 5361 5361 5362 5362 5362 5362 5363 5363 5364 5364 5365 5365 5366 5367 5367 5368 5368 5369
5389 5388 5386 5385 5383 5382 5381 5380 5378 5377 5376 5374 5372 5371 5370 5369 5368 5367 5366 5365 5364 5363 5362 5362 5362 5361 5361 5361 5360 5360 5359 5359 5358 5358 5358 5358 5358 5358 5358 5357 5357 5357 5357 5357 5357 5356 5356 5355 5355 5355 5355 5354 5354 5355 5355 5355 5356 5356 5356 5357 5357 5357 5357 5358 5358 5358 5359 5359 5360 5360 5361 5361 5362 5362 5362 5362 5363 5363 5364 5364 5365 5365 5366 5367 5367 5367
5385 5383 5382 5381 5379 5378 5377 5376 5375 5374 5372 5371 5370 5368 5367 5366 5365 5365 5363 5362 5362 5361 5361 5360 5360 5359 5359 5359 5358 5358 5358 5357 5357 5357 5357 5357 5357 5357 5357 5357 5357 5357 5357 5356 5356 5356 5355 5355 5355 5354 5354 5354 5354 5354 5354 5355 5355 5356 5356 5356 5356 5357 5357 5357 5357 5358 5358 5359 5359 5360 5360 5360 5361 5361 5361 5362 5362 5362 5363 5363 5364 5364 5365 5365 5366 5366
5380 5379 5378 5377 5376 5374 5373 5372 5371 5370 5369 5368 5367 5366 5364 5364 5363 5362 5361 5360 5360 5359 5359 5358 5358 5358 5357 5357 5357 5356 5356 5356 5356 5356 5356 5356 5355 5355 5356 5356 5356 5356 5356 5356 5355 5355 5355 5354 5354 5354 5354 5353 5353 5353 5353 5354 5354 5355 5355 5355 5356 5356 5356 5357 5357 5357 5357 5358 5358 5359 5359 5359 5360 5360 5361 5361 5361 5362 5362 5362 5362 5363 5363 5364 5364 5365
5376 5375 5374 5373 5372 5371 5370 5369 5368 5367 5366 5365 5363 5362 5362 5361 5360 5360 5359 5358 5358 5357 5357 5357 5356 5356 5356 5355 5355 5355 5355 5355 5355 5355 5354 5354 5354 5354 5354 5354 5355 5355 5355 5355 5355 5355 5354 5354 5354 5354 5353 5353 5353 5353 5353 5353 5353 5354 5354 5355 5355 5356 5356 5356 5357 5357 5357 5357 5358 5358 5358 5359 5359 5360 5360 5360 5360 5360 5361 5361 5362 5362 5362 5363 5363 5364
5372 5371 5370 5369 5368 5367 5366 5365 5364 5364 5363 5362 5361 5360 5359 5358 5358 5357 5357 5356 5356 5355 5355 5355 5355 5354 5354 5354 5353 5353 5353 5353 5353 5353 5353 5353 5353 5353 5353 5353 5353 5354 5354 5354 5354 5354 5354 5354 5353 5353 5353 5353 5352 5352 5352 5353 5353 5353 5353 5354 5354 5355 5355 5356 5356 5356 5357 5357 5357 5357 5358 5358 5359 5359 5358 5359 5359 5359 5360 5360 5360 5361 5361 5362 5362 5362
5368 5367 5367 5366 5365 5363 5362 5362 5361 5360 5360 5359 5358 5357 5356 5356 5355 5355 5354 5354 5354 5353 5353 5353 5353 5352 5352 5352 5352 5352 5352 5352 5352 5352 5352 5352 5352 5352 5352 5352 5352 5353 5353 5353 5353 5353 5353 5353 5353 5353 5352 5352 5352 5352 5352 5352 5353 5353 5353 5353 5353 5354 5355 5355 5355 5356 5356 5356 5357 5357 5357 5357 5357 5357 5357 5358 5358 5358 5358 5359 5359 5359 5360 5360 5361 5362
5364 5364 5363 5362 5361 5360 5359 5358 5358 5357 5357 5356 5355 5354 5354 5353 5353 5352 5352 5352 5352 5352 5352 5351 5351 5351 5351 5350 5350 5350 5350 5350 5350 5350 5350 5350 5350 5350 5351 5351 5351 5352 5352 5352 5352 5352 5352 5352 5352 5352 5352 5352 5352 5352 5352 5352 5352 5352 5352 5352 5352 5353 5353 5354 5354 5355 5355 5355 5356 5356 5357 5356 5356 5357 5357 5357 5357 5357 5357 5357 5358 5358 5358 5359 5360 5360
5361 5360 5360 5359 5358 5357 5356 5355 5355 5354 5354 5353 5352 5352 5351 5351 5351 5351 5351 5351 5351 5350 5350 5349 5349 5349 5349 5349 5348 5348 5348 5348 5348 5348 5349 5349 5349 5349 5349 5350 5350 5351 5351 5351 5351 5352 5352 5352 5352 5352 5352 5352 5351 5351 5351 5351 5352 5352 5352 5352 5352 5352 5352 5353 5353 5354 5354 5354 5355 5355 5355 5355 5355 5356 5356 5356 5356 5356 5356 5357 5357 5357 5357 5358 5358 5359
5357 5356 5356 5355 5354 5353 5353 5352 5352 5351 5351 5350 5350 5349 5349 5348 5348 5348 5348 5348 5348 5348 5348 5347 5347 5347 5347 5347 5347 5347 5347 5347 5347 5347 5347 5347 5347 5348 5348 5349 5349 5349 5350 5350 5350 5350 5351 5351 5351 5351 5351 5351 5351 5351 5351 5351 5351 5351 5351 5351 5351 5351 5351 5351 5352 5352 5353 5353 5354 5354 5354 5354 5354 5354 5355 5355 5355 5355 5355 5355 5356 5356 5356 5357 5357 5357
5353 5353 5352 5352 5351 5350 5350 5349 5349 5348 5348 5347 5347 5347 5346 5346 5346 5346 5346 5346 5346 5346 5346 5346 5346 5346 5345 5345 5345 5345 5345 5345 5345 5346 5346 5346 5346 5347 5347 5347 5348 5348 5348 5348 5349 5349 5349 5349 5349 5349 5350 5350 5350 5350 5350 5350 5350 5350 5350 5350 5350 5350 5350 5350 5350 5351 5351 5352 5352 5352 5353 5353 5353 5353 5353 5354 5354 5354 5354 5354 5354 5355 5355 5355 5356 5356
5350 5349 5349 5348 5348 5347 5347 5346 5346 5346 5345 5345 5345 5344 5344 5344 5344 5344 5344 5344 5344 5344 5344 5344 5344 5344 5344 5344 5344 5344 5344 5344 5344 5344 5344 5345 5345 5345 5346 5346 5346 5347 5347 5347 5347 5347 5348 5348 5348 5348 5349 5349 5349 5349 5349 5349 5349 5349 5349 5349 5349 5349 5348 5348 5348 5348 5349 5349 5350 5350 5351 5351 5352 5352 5352 5352 5352 5353 5353 5353 5353 5353 5354 5354 5354 5355
5347 5346 5346 5345 5344 5344 5344 5343 5343 5343 5343 5342 5342 5342 5342 5342 5342 5342 5342 5342 5342 5342 5342 5342 5342 5342 5342 5342 5342 5342 5342 5342 5342 5343 5343 5343 5344 5344 5344 5345 5345 5345 5346 5346 5346 5346 5347 5347 5347 5347 5347 5347 5347 5347 5348 5348 5348 5348 5348 5348 5348 5347 5347 5347 5347 5347 5347 5347 5347 5348 5348 5349 5350 5350 5351 5351 5351 5352 5352 5352 5352 5352 5352 5353 5353 5353
5343 5342 5342 5342 5341 5341 5341 5341 5340 5340 5340 5340 5340 5340 5339 5339 5339 5339 5339 5339 5339 5340 5340 5340 5340 5340 5340 5341 5341 5341 5341 5341 5341 5341 5342 5342 5342 5342 5343 5343 5343 5344 5344 5344 5345 5345 5345 5345 5345 5346 5346 5346 5346 5346 5347 5347 5347 5347 5347 5347 5347 5346 5346 5346 5346 5346 5346 5346 5346 5346 5346 5346 5347 5348 5348 5349 5349 5350 5350 5351 5351 5351 5351 5352 5352 5352
5339 5339 5338 5338 5338 5338 5337 5337 5337 5337 5337 5337 5337 5337 5337 5337 5337 5337 5337 5337 5337 5338 5338 5338 5338 5338 5338 5339 5339 5339 5340 5340 5340 5340 5340 5341 5341 5341 5342 5342 5342 5342 5343 5343 5343 5343 5344 5344 5344 5344 5344 5345 5345 5346 5346 5346 5346 5346 5346 5345 5345 5345 5344 5344 5344 5344 5344 5344 5344 5344 5344 5344 5345 5346 5346 5347 5347 5348 5348 5349 5349 5350 5350 5350 5350 5351
5335 5335 5335 5335 5335 5335 5335 5335 5335 5335 5335 5335 5335 5335 5335 5335 5335 5335 5335 5335 5335 5336 5336 5336 5337 5337 5337 5337 5337 5338 5338 5338 5338 5338 5339 5339 5340 5340 5340 5341 5341 5341 5342 5342 5342 5342 5342 5342 5343 5343 5343 5344 5345 5345 5345 5345 5344 5344 5344 5344 5343 5343 5343 5343 5343 5343 5343 5343 5343 5343 5343 5343 5343 5344 5344 5345 5345 5346 5347 5347 5348 5348 5348 5349 5349 5349
5331 5332 5332 5332 5332 5332 5332 5332 5332 5332 5332 5332 5332 5332 5332 5332 5332 5332 5332 5333 5333 5334 5334 5334 5335 5335 5335 5336 5336 5336 5337 5337 5337 5337 5337 5338 5338 5339 5339 5339 5340 5340 5340 5340 5340 5341 5341 5341 5341 5342 5342 5343 5343 5343 5343 5342 5342 5342 5342 5342 5342 5342 5342 5341 5342 5342 5342 5342 5342 5342 5342 5342 5342 5343 5343 5344 5344 5345 5345 5346 5346 5347 5347 5347 5347 5348